Weather History for Shannon, Ireland

Change the Weather History Date:

Saturday, October 1, 2011

  Actual Average Record
Temperature  
Mean Temperature 54 °F -  
Max Temperature 57 °F 58 °F 69 °F (2002)
Min Temperature 50 °F 46 °F 44 °F (2007)
Degree Days  
Heating Degree Days 12    
Growing Degree Days 4 (Base 50)    
Moisture  
Dew Point 53 °F    
Average Humidity 96    
Maximum Humidity 100    
Minimum Humidity 94    
Precipitation  
Precipitation 0.08 in 0.12 in - ()
Sea Level Pressure  
Sea Level Pressure 30.17 in    
Wind  
Wind Speed 6 mph ()    
Max Wind Speed 12 mph    
Max Gust Speed -    
Visibility 5.8 miles    
Events Rain    
Averages and records for this station are not official NWS values.
T = Trace of Precipitation, MM = Missing Value Source: Averaged Metar Reports

Daily Weather History Graph

Daily Weather History Graph

Search for Another Location

Airport:

Trip Planner

Search our weather history database for the weather conditions in past years. The results will help you decide how hot, cold, wet, or windy it might be!

Date:

Astronomy

Oct. 01, 2011 Rise Set
Actual Time 7:36 AM IST 7:13 PM IST
Civil Twilight 7:02 AM IST 7:47 PM IST
Nautical Twilight 6:22 AM IST 8:27 PM IST
Astronomical Twilight 5:40 AM IST 9:08 PM IST
Moon 1:14 PM IST (10/1) 9:10 PM IST (10/1)
Length of Visible Light 12h 45m
Length of Day
11h 37m
Waxing Crescent, 22% of the Moon is Illuminated
Oct 1
Waxing Crescent
Oct 4
First Quarter
Oct 12
Full
Oct 20
Last Quarter
Oct 26
New

Hourly Weather History & Observations

Time (IST) Temp. Dew Point Humidity Pressure Visibility Wind Dir Wind Speed Gust Speed Precip Events Conditions
12:00 AM 51.8 °F 51.8 °F 100% 30.15 in 6.2 mi NNW 5.8 mph - N/A   Mostly Cloudy
12:30 AM 51.8 °F 50.0 °F 94% 30.15 in 6.2 mi North 4.6 mph - N/A   Mostly Cloudy
1:00 AM 51 °F 50 °F 97% 30.17 in 16 mi NNW 8.9 mph - -   Mostly Cloudy
1:00 AM 51.8 °F 50.0 °F 94% 30.15 in 6.2 mi NNW 8.1 mph - N/A   Mostly Cloudy
1:30 AM 51.8 °F 51.8 °F 100% 30.15 in 6.2 mi NNW 8.1 mph - N/A   Mostly Cloudy
2:00 AM 51.8 °F 51.8 °F 100% 30.15 in 6.2 mi NNW 5.8 mph - N/A   Mostly Cloudy
2:30 AM 51.8 °F 51.8 °F 100% 30.15 in 6.2 mi NNW 6.9 mph - N/A   Mostly Cloudy
3:00 AM 51.8 °F 51.8 °F 100% 30.15 in 6.2 mi NNW 8.1 mph - N/A   Mostly Cloudy
3:30 AM 51.8 °F 51.8 °F 100% 30.15 in 6.2 mi North 5.8 mph - N/A   Mostly Cloudy
4:00 AM 51.8 °F 51.8 °F 100% 30.15 in 6.2 mi North 8.1 mph - N/A   Mostly Cloudy
4:30 AM 51.8 °F 50.0 °F 94% 30.15 in 6.2 mi NNW 8.1 mph - N/A   Mostly Cloudy
5:00 AM 51.8 °F 50.0 °F 94% 30.15 in 6.2 mi NNW 6.9 mph - N/A   Mostly Cloudy
5:30 AM 51.8 °F 50.0 °F 94% 30.15 in 6.2 mi North 4.6 mph - N/A   Mostly Cloudy
6:00 AM 51.8 °F 50.0 °F 94% 30.15 in 6.2 mi NNW 6.9 mph - N/A   Mostly Cloudy
6:30 AM 51.8 °F 50.0 °F 94% 30.15 in 6.2 mi NNW 6.9 mph - N/A   Mostly Cloudy
7:00 AM 51 °F 50 °F 97% 30.19 in 16 mi North 4.5 mph - -   Partly Cloudy
7:00 AM 51.8 °F 50.0 °F 94% 30.18 in 6.2 mi North 4.6 mph - N/A   Mostly Cloudy
7:30 AM 51.8 °F 50.0 °F 94% 30.15 in 6.2 mi North 9.2 mph - N/A Rain Light Rain
8:00 AM 51.8 °F 50.0 °F 94% 30.15 in 5.6 mi NNW 2.3 mph - N/A Rain Light Rain
8:30 AM 51.8 °F 51.8 °F 100% 30.18 in 6.2 mi ESE 4.6 mph - N/A   Mostly Cloudy
9:00 AM 51.8 °F 51.8 °F 100% 30.18 in 6.2 mi NNE 4.6 mph - N/A   Mostly Cloudy
9:30 AM 51.8 °F 51.8 °F 100% 30.15 in 6.2 mi NNW 11.5 mph - N/A   Mostly Cloudy
10:00 AM 51.8 °F 51.8 °F 100% 30.18 in 6.2 mi NW 6.9 mph - N/A   Mostly Cloudy
10:30 AM 51.8 °F 51.8 °F 100% 30.18 in 6.2 mi NW 8.1 mph - N/A   Mostly Cloudy
11:00 AM 53.6 °F 51.8 °F 94% 30.21 in 6.2 mi NW 8.1 mph - N/A   Mostly Cloudy
11:30 AM 53.6 °F 51.8 °F 94% 30.18 in 6.2 mi North 9.2 mph - N/A   Mostly Cloudy
12:00 PM 53.6 °F 53.6 °F 100% 30.18 in 6.2 mi North 8.1 mph - N/A   Overcast
12:30 PM 55.4 °F 53.6 °F 94% 30.18 in 6.2 mi North 8.1 mph - N/A   Mostly Cloudy
1:00 PM 55 °F 54 °F 94% 30.19 in 11 mi North 8.9 mph - -   Partly Cloudy
1:00 PM 55.4 °F 53.6 °F 94% 30.18 in 6.2 mi North 8.1 mph - N/A   Mostly Cloudy
1:30 PM 55.4 °F 53.6 °F 94% 30.18 in 5.0 mi NNE 8.1 mph - N/A   Mostly Cloudy
2:00 PM 55.4 °F 53.6 °F 94% 30.18 in 5.0 mi NNE 9.2 mph - N/A   Mostly Cloudy
2:30 PM 55.4 °F 55.4 °F 100% 30.18 in 5.0 mi NE 6.9 mph - N/A   Mostly Cloudy
3:00 PM 57.2 °F 55.4 °F 94% 30.18 in 6.2 mi NE 8.1 mph - N/A Rain Light Rain
3:30 PM 57.2 °F 55.4 °F 94% 30.18 in 6.2 mi NE 8.1 mph - N/A Rain Light Rain
4:00 PM 57.2 °F 55.4 °F 94% 30.18 in 6.2 mi NNE 5.8 mph - N/A Rain Light Rain
4:30 PM 57.2 °F 55.4 °F 94% 30.18 in 6.2 mi NE 4.6 mph - N/A Rain Light Rain
5:00 PM 57.2 °F 55.4 °F 94% 30.18 in 5.6 mi NNE 5.8 mph - N/A Rain Light Rain
5:30 PM 57.2 °F 55.4 °F 94% 30.18 in 6.2 mi NE 8.1 mph - N/A Rain Light Rain
6:00 PM 57.2 °F 55.4 °F 94% 30.15 in 4.3 mi NE 6.9 mph - N/A Rain Light Rain
6:30 PM 57.2 °F 55.4 °F 94% 30.18 in 3.7 mi ENE 3.5 mph - N/A Rain Light Rain
7:00 PM 57 °F 56 °F 95% 30.19 in 2 mi NNE 2.2 mph - - Rain Light Rain
7:00 PM 57.2 °F 55.4 °F 94% 30.18 in 2.5 mi NNE 2.3 mph - N/A Rain Light Rain
7:30 PM 57.2 °F 55.4 °F 94% 30.18 in 1.9 mi NNE 3.5 mph - N/A Rain Light Rain
8:00 PM 57.2 °F 55.4 °F 94% 30.18 in 2.5 mi NNE 3.5 mph - N/A Rain Light Rain
8:30 PM 57.2 °F 55.4 °F 94% 30.18 in 3.7 mi NNE 4.6 mph - N/A   Light Drizzle
9:00 PM 57.2 °F 55.4 °F 94% 30.18 in 3.1 mi NE 4.6 mph - N/A Rain Light Rain
9:30 PM 57.2 °F 55.4 °F 94% 30.18 in 3.1 mi NNE 3.5 mph - N/A Rain Light Rain
10:00 PM 57.2 °F 55.4 °F 94% 30.18 in 3.1 mi NE 4.6 mph - N/A Rain Light Rain
10:30 PM 55.4 °F 55.4 °F 100% 30.18 in 5.0 mi NNE 4.6 mph - N/A Rain Light Rain
11:00 PM 57.2 °F 55.4 °F 94% 30.18 in 3.1 mi NNE 5.8 mph - N/A Rain Light Rain
11:30 PM 57.2 °F 55.4 °F 94% 30.18 in 2.8 mi NNE 4.6 mph - N/A Rain Light Rain